www.pogodaiklimat.ru

Погода и климат >> Архив погоды >> Нигерия >> Cano


ПОГОДА в Cano

  • Прогноз погоды в Cano
  • Монитор погоды в Cano
  • Климат города

АРХИВ ПОГОДЫ в Cano

Время (UTC), дата Ветер
(напр.,м/с)
 
Видим.   Явления Облачность Т
(С)
Тd
(С)
f
(%)
Тe
(С)
Тes
(С)
Комфортность P
(гПа)
Po
(гПа)
Тmin
(С)
Tmax
(С)
R
(мм)
R24
(мм)
S
(см)
00 8.08 З 3 10 км 8/0
[Cs]
+23.3 +21.8 91 +32 +32 очень
душно
1016.9 1062.2
03 8.08 ЮЗ 3 10 км 8/0
[Cs]
+22.5 +21.5 94 +30 +30 очень
душно
1015.8 1061.1
06 8.08 ЮЗ 2 10 км 8/0
[Cs]
+22.0 +21.2 95 +28 +29 душно 1017.2 1062.3 +21.6
09 8.08 ЮЗ 6 10 км 8/3 400 м
[Cu med, cong Cs]
+27.0 +22.3 75 +35 +39 очень
душно
1017.3 1063.3
21 8.08 З 2 10 км 8/1 330 м
[Cu hum Cs]
+26.3 +22.2 78 +34 +34 очень
душно
1015.0 1061.0
00 9.08 З 3 10 км 9/3 270 м
[Cu med, cong Ac trans Cs]
+25.0 +21.3 80 +32 +32 очень
душно
1015.4 1064.1
03 9.08 З 2 10 км 9/0
[Ac trans Cs]
+24.5 +21.1 81 +31 +31 очень
душно
1015.2 1060.8
06 9.08 ЮВ 3 8000 м гроза, ливневой дождь 9/8 300 м
[Cb cap Ac lent Cs]
+22.0 +21.4 96 +29 +29 очень
душно
1018.1 1063.1 +22.0 3
12 9.08 З 2 8000 м слабый дождь 10/4 300 м
[Cu med, cong As op]
+24.5 +22.3 88 +32 +35 очень
душно
1016.8 1062.4
15 9.08 ЮЗ 3 10 км 8/4 360 м
[Cu med, cong Ac trans Cs]
+27.1 +22.6 76 +36 +38 очень
душно
1012.8 1059.0
18 9.08 З 1 10 км 9/3 360 м
[Cu med, cong Ac As Cs]
+26.1 +23.2 84 +35 +35 очень
душно
1013.8 1059.8 +28.3 0.0
21 9.08 ЮВ 2 10 км 9/1 360 м
[Cu med, cong Ac trans Cs]
+25.2 +23.6 91 +34 +34 очень
душно
1016.1 1061.8
00 10.08 ЮЗ 3 10 км 9/0
[Ac trans Cs]
+24.4 +23.1 92 +32 +32 очень
душно
1015.7 1061.3
03 10.08 ЮЗ 3 10 км 8/0
[Ac trans Cs]
+23.0 +22.0 94 +31 +31 очень
душно
1014.5 1059.9
06 10.08 СЗ 1 10 км 9/0
[Ac trans Cs]
+22.2 +21.9 98 +29 +30 очень
душно
1015.8 1061.0 +21.8 6
09 10.08 ЮЗ 4 10 км 9/0
[As trans Cs]
+27.6 +21.6 70 +35 +41 очень
душно
1016.2 1062.3
12 10.08 ЮЗ 3 10 км 9/6 400 м
[Cu med, cong Cs]
+29.9 +22.2 63 +39 +45 очень
душно
1014.7 1061.3
15 10.08 ЮЗ 5 10 км 8/5 400 м
[Cu med, cong Ac trans Cs]
+31.0 +22.2 60 +40 +42 очень
душно
1012.4 1059.3
18 10.08 ЮЗ 3 10 км 9/5 400 м
[Cb cap Ac trans Cs]
+26.8 +22.7 78 +35 +35 очень
душно
1013.7 1059.8
21 10.08 ЮЗ 4 10 км 8/3 400 м
[Cu med, cong Cs]
+25.3 +22.1 82 +33 +33 очень
душно
1016.3 1062.0
00 11.08 З 4 10 км 8/0
[Ac trans Cs]
+24.8 +22.5 87 +32 +32 очень
душно
1016.8 1062.4
03 11.08 З 3 10 км 8/0
[Ac trans Cs]
+23.6 +21.9 90 +30 +30 очень
душно
1015.4 1060.9
06 11.08 ЮЗ 2 10 км 8/0
[Ac trans Cs]
+22.7 +21.0 90 +30 +30 очень
душно
1016.8 1062.0
09 11.08 СЗ 4 10 км 8/0
[As trans Cs]
+27.8 +22.3 72 +36 +44 очень
душно
1017.2 1063.3
12 11.08 З 4 10 км 9/6 400 м
[Cu med, cong As op Cs]
+30.2 +23.5 67 +41 +44 опасность
перегрева
1014.7 1061.4
15 11.08 З 2 10 км 9/6 420 м
[Cu med, cong Cs]
+30.9 +22.2 60 +40 +43 очень
душно
1012.8 1059.7
18 11.08 ЮЗ 2 10 км гроза без осадков {дождь} 8/4 330 м
[Cb cap Ac trans Cs]
+26.4 +24.3 88 +37 +37 очень
душно
1013.5 1059.6 +31.7
21 11.08 З 2 10 км гроза без осадков 8/3 330 м
[Cb cap Cs]
+25.8 +25.8 100 +38 +38 очень
душно
1015.4 1061.3
00 12.08 З 4 10 км 8/0
[Cs]
+25.0 +22.7 87 +33 +33 очень
душно
1015.1 1060.8
15 12.08 СЗ 3 10 км 9/6 420 м
[Cb calv Ac trans Cs]
+32.0 +23.5 61 +43 +45 опасность
перегрева
1009.9 1057.1
18 12.08 ЮВ 7 5000 м гроза, ливневой дождь 9/9 210 м
[Cb cap Cs]
+20.4 +19.5 95 +24 +24 комфорт 1015.8 1060.7 +32.2 10
21 12.08 ЮЗ 4 10 км гроза, ливневой дождь 9/6 210 м
[Cb cap Cs]
+20.8 +19.6 93 +26 +26 душно 1015.8 1060.7
00 13.08 ЮЗ 4 10 км гроза, ливневой дождь 9/6 210 м
[Cb cap Cs]
+20.8 +19.6 93 +26 +26 душно 1015.8 1060.7
03 13.08 ЮЗ 3 10 км зарница {гроза, дождь} 9/3 210 м
[Cb cap Cs]
+20.8 +19.6 93 +26 +26 душно 1013.6 1058.7
06 13.08 З 4 10 км зарница {гроза, дождь} 9/4 210 м
[Cb cap As trans Cs]
+20.5 +20.0 97 +25 +25 комфорт 1015.8 1060.7 +20.0 61
09 13.08 ЮЗ 5 10 км 8/3 270 м
[Cu med, cong Ac trans Cs]
+25.0 +20.0 74 +31 +34 очень
душно
1015.3 1061.0
15 13.08 ЮЗ 3 10 км 8/3 300 м
[Cu Sc As trans Ci fib]
+28.6 +21.7 66 1011.4
18 13.08 З 2 10 км 8/3 330 м
[Cu med, cong Ac lent Cs]
+25.7 +21 +21 комфорт 1012.0 1058.0
21 13.08 ЮЗ 2 10 км 8/0
[Cs]
+23.8 +21.1 85 +30 +30 очень
душно
1014.5 1060.1
00 14.08 З 2 10 км 8/0
[Cs]
+23.0 +21.5 91 +31 +31 очень
душно
1015.2 1060.6
03 14.08 ЮЗ 2 10 км 8/0
[Ac trans Cs]
+23.0 +21.8 93 +31 +31 очень
душно
1014.4 1059.8
06 14.08 Ю 3 10 км 9/0
[Ac trans Cs]
+23.0 +21.8 93 +31 +32 очень
душно
1015.4 1060.8 +22.7
09 14.08 ЮЗ 5 10 км 8/1 360 м
[Cu Sc Ac lent Cs]
+27.1 +22.7 77 +36 +41 очень
душно
1016.1 1062.2
12 14.08 ЮЗ 4 10 км 9/6 400 м
[Cb cap Cs]
+29.3 +23.4 71 +40 +45 очень
душно
1015.3 1061.8
15 14.08 Ю 5 10 км гроза без осадков 9/6 360 м
[Cb cap As trans Cs]
+27.2 +21.8 72 +35 +36 очень
душно
1013.9 1060.1

 

Местоположение метеостанции Cano (Нигерия): широта 12.05 долгота 8.53 высота над уровнем моря 476 м.

В архиве по умолчанию представлена погода в Cano за последнюю неделю. Архивные данные за месяц целиком и за предыдущие месяцы, начиная с января 2011 года, Вы можете получить, выбрав интересующий диапазон дат из раскрывающегося списка и нажав кнопку "Ввод!".


*Определитесь, кто Вы:
робот инопланетянин человек

Внимание! Время в таблицах - всемирное. Для получения местного времени необходимо прибавить поправку, которая в Cano равна 3 ч.

Смотрите также архив погоды в соседних городах и на ближайших метеорологических станциях:

Погода в Magaria (Нигер) (112 км)
Погода в Zinder (Нигер) (199 км)
Погода в Maradi (Нигер) (223 км)
Погода в Goure (Нигер) (288 км)
Погода в Abuja (Нигерия) (353 км)
Погода в Maine-Soroa (Нигер) (397 км)
Погода в Birni-Nkonni (Нигер) (405 км)
Погода в Bida (Нигерия) (428 км)
Погода в Yelwa (Нигерия) (432 км)
Погода в Tahoua (Нигер) (476 км)

Пояснения к столбцам:

Ветер - указаны скорость ветра в м/с - средняя за 10 мин, порывы в срок и между сроками (в фигурных скобках) и направление, откуда дует ветер: С - северный, СВ - северо-восточный, В - восточный, ЮВ - юго-восточный, Ю - южный, ЮЗ - юго-западный, З - западный, СЗ - северо-западный.
Видимость - горизонтальная дальность видимости в метрах или километрах. При видимости от 1 до 10 км при отсутствии осадков обычно наблюдается дымка, при ухудшении видимости до 1 км и менее - туман. В сухую погоду видимость может ухудшаться дымом, пылью или мглою.
Явления - указаны атмосферные явления, наблюдавшиеся в срок или в последний час перед сроком; фигурными скобками обозначены явления, наблюдавшиеся между сроками (за 1-3 часа до срока); квадратными скобками обозначены град или гололедные отложения с указанием их диаметра в мм.
Облачность - указаны через наклонную черту общая и нижняя облачность в баллах и высота нижней границы облаков в метрах; квадратными скобками обозначены формы облаков: Ci - перистые, Cs - перисто-слоистые, Cc - перисто-кучевые, Ac - высококучевые, As - высокослоистые, Sc - слоисто-кучевые, Ns - слоисто-дождевые, Cu - кучевые, Cb - кучево-дождевые. Подробнее классификацию облаков см. в Атласе облаков (PDF).
T - Температура воздуха - температура, измеренная на высоте 2 м над землей.
Td - Температура точки росы - температура, при понижении до которой содержащийся в воздухе водяной пар достигнет насыщения.
f - Относительная влажность воздуха - влажноcть воздуха, измеренная на высоте 2 м над землей.
Te - Эффективная температура - температура, которую ощущает одетый по сезону человек в тени. Характеристика душности погоды. При расчете учитывается влияние влажности воздуха и скорости ветра на теплоощущения человека.
Tes - Эффективная температура на солнце - температура, которую ощущает человек, с поправкой на солнечный нагрев. Характеристика знойности погоды. Зависит от высоты солнца над горизонтом, облачности и скорости ветра. Ночью, в пасмурную погоду, а также при ветре 12 м/с и более поправка равна нулю.
P - Атмосферное давление - приведенное к уровню моря атмосферное давление.
Po - Атмосферное давление - измеренное на уровне метеостанции атмосферное давление.
Tmin - Минимальная температура - минимум температуры воздуха на высоте 2 м над землей.
Tmax - Максимальная температура - максимум температуры воздуха на высоте 2 м над землей.
R - Количество осадков - Количество выпавших осадков за период времени, мм. При наведении курсора мыши на число - период времени, за который выпало указанное количество осадков.
R24 - Количество осадков - Количество выпавших осадков за 24 часа, мм.
S - Снежный покров - Высота снежного покрова, см. При наведении курсора мыши на число - состояние снежного покрова и степень покрытия местности в баллах.